Location: La Tine
(46.4708°N, 7.0525°E)
Time: 01:05:37
(UTC+00:00)

Meteor 1-24 Rocket - Pass Details

Date: 21 January 2021
Orbit: 791 x 926 km, 81.3° (Epoch: 03 March)

Event Time Altitude Azimuth Distance (km) Brightness Sun altitude
Rises 17:29:59 0° 199° (SSW) 3,315 7.3 -12.0°
Reaches altitude 10° 17:32:24 10° 203° (SSW) 2,375 6.6 -12.4°
Maximum altitude 17:37:41 62° 284° (WNW) 896 4.1 -13.2°
Drops below altitude 10° 17:42:57 10° 5° (N) 2,368 5.8 -14.1°
Sets 17:45:22 0° 9° (N) 3,304 6.6 -14.5°
